^^
Paulen-Weather Station Historical Data
Daily Summary for May 22, 2022 Units:  Metric    English   Both
Daily Weekly Monthly Yearly Custom
  High: Low: Average:
Temperature: 15 °C 9 °C 12.2 °C
Dew Point: 11 °C 7 °C 9.6 °C
Humidity: 95% 73% 84%
Wind Speed: 33km/h 0km/h 10.7km/h
Wind Gust: 29km/h - -
Wind- - NNW
Pressure: 1013.31 hPa 1011.45 hPa -
Precipitation: 0 mm    
Historical Graphs
 
 
Tabular Data for May 22, 2022
Time Temperature Dew Point Pressure Wind Wind Speed Wind Gust Humidity Rainfall Rate (Hourly) solar
00:04 11 °C 8 °C 1012.8 hPa WNW 3 km/h 2 km/h 84% 0 mm 0 W/m2
00:09 11 °C 8 °C 1012.84 hPa Calm     84% 0 mm 0 W/m2
00:14 11 °C 8 °C 1012.9 hPa WNW 1 km/h   84% 0 mm 0 W/m2
00:19 11 °C 8 °C 1012.94 hPa NW 2 km/h 1 km/h 84% 0 mm 0 W/m2
00:24 11 °C 8 °C 1012.94 hPa Calm     85% 0 mm 0 W/m2
00:29 11 °C 8 °C 1013 hPa Calm     85% 0 mm 0 W/m2
00:34 11 °C 8 °C 1013.04 hPa WNW 2 km/h 1 km/h 85% 0 mm 0 W/m2
00:39 11 °C 8 °C 1013.07 hPa WNW 2 km/h 2 km/h 85% 0 mm 0 W/m2
00:44 11 °C 8 °C 1013.07 hPa WNW 4 km/h 2 km/h 85% 0 mm 0 W/m2
00:49 11 °C 8 °C 1013.04 hPa WNW 5 km/h 4 km/h 85% 0 mm 0 W/m2
00:54 11 °C 8 °C 1012.97 hPa NW 6 km/h 5 km/h 84% 0 mm 0 W/m2
00:59 11 °C 8 °C 1012.97 hPa NW 5 km/h 5 km/h 83% 0 mm 0 W/m2
01:04 11 °C 8 °C 1012.94 hPa NW 5 km/h 5 km/h 83% 0 mm 0 W/m2
01:09 11 °C 8 °C 1012.97 hPa NW 4 km/h 3 km/h 83% 0 mm 0 W/m2
01:14 11 °C 8 °C 1012.94 hPa NW 5 km/h 4 km/h 83% 0 mm 0 W/m2
01:19 11 °C 8 °C 1012.94 hPa NW 4 km/h 4 km/h 83% 0 mm 0 W/m2
01:24 11 °C 8 °C 1012.9 hPa NW 4 km/h 3 km/h 83% 0 mm 0 W/m2
01:29 11 °C 8 °C 1012.87 hPa NW 1 km/h   83% 0 mm 0 W/m2
01:34 11 °C 8 °C 1012.9 hPa Calm     85% 0 mm 0 W/m2
01:39 11 °C 8 °C 1012.9 hPa Calm     85% 0 mm 0 W/m2
01:44 10 °C 8 °C 1012.94 hPa Calm     85% 0 mm 0 W/m2
01:49 10 °C 8 °C 1012.94 hPa Calm     85% 0 mm 0 W/m2
01:54 10 °C 8 °C 1012.94 hPa Calm     86% 0 mm 0 W/m2
01:59 10 °C 8 °C 1012.94 hPa Calm     86% 0 mm 0 W/m2
02:04 10 °C 8 °C 1012.87 hPa Calm     86% 0 mm 0 W/m2
02:09 10 °C 8 °C 1012.84 hPa Calm     87% 0 mm 0 W/m2
02:14 10 °C 8 °C 1012.77 hPa Calm     87% 0 mm 0 W/m2
02:19 10 °C 8 °C 1012.77 hPa Calm     86% 0 mm 0 W/m2
02:24 10 °C 8 °C 1012.8 hPa Calm     85% 0 mm 0 W/m2
02:29 10 °C 8 °C 1012.84 hPa NW 1 km/h   85% 0 mm 0 W/m2
02:34 10 °C 8 °C 1012.8 hPa Calm     85% 0 mm 0 W/m2
02:39 10 °C 8 °C 1012.84 hPa Calm     85% 0 mm 0 W/m2
02:44 10 °C 8 °C 1012.84 hPa Calm     85% 0 mm 0 W/m2
02:49 10 °C 8 °C 1012.94 hPa Calm     85% 0 mm 0 W/m2
02:54 10 °C 8 °C 1012.94 hPa Calm     86% 0 mm 0 W/m2
02:59 10 °C 8 °C 1012.97 hPa Calm     86% 0 mm 0 W/m2
03:04 10 °C 8 °C 1012.97 hPa Calm     86% 0 mm 0 W/m2
03:09 10 °C 8 °C 1012.94 hPa Calm     87% 0 mm 0 W/m2
03:14 10 °C 8 °C 1012.87 hPa Calm     88% 0 mm 0 W/m2
03:19 9 °C 8 °C 1012.9 hPa Calm     88% 0 mm 0 W/m2
03:24 9 °C 8 °C 1012.9 hPa Calm     89% 0 mm 0 W/m2
03:29 9 °C 8 °C 1012.87 hPa Calm     89% 0 mm 0 W/m2
03:34 9 °C 8 °C 1012.87 hPa Calm     89% 0 mm 0 W/m2
03:39 9 °C 8 °C 1012.94 hPa Calm     89% 0 mm 0 W/m2
03:44 9 °C 8 °C 1012.97 hPa Calm     90% 0 mm 0 W/m2
03:49 9 °C 8 °C 1012.97 hPa Calm     90% 0 mm 0 W/m2
03:54 9 °C 8 °C 1012.97 hPa Calm     90% 0 mm 0 W/m2
03:59 9 °C 8 °C 1012.94 hPa Calm     90% 0 mm 0 W/m2
04:04 9 °C 8 °C 1012.94 hPa Calm     90% 0 mm 0 W/m2
04:09 9 °C 8 °C 1012.97 hPa WNW 1 km/h   91% 0 mm 0 W/m2
04:14 9 °C 8 °C 1012.94 hPa Calm     91% 0 mm 0 W/m2
04:19 9 °C 8 °C 1012.9 hPa Calm     91% 0 mm 0 W/m2
04:24 9 °C 7 °C 1012.9 hPa Calm     91% 0 mm 0 W/m2
04:29 9 °C 7 °C 1013 hPa Calm     91% 0 mm 0 W/m2
04:34 9 °C 7 °C 1013.04 hPa WNW 1 km/h   91% 0 mm 0 W/m2
04:39 9 °C 7 °C 1013 hPa WNW 1 km/h   91% 0 mm 5 W/m2
04:44 9 °C 7 °C 1013 hPa Calm     91% 0 mm 5 W/m2
04:49 9 °C 7 °C 1013 hPa WNW 1 km/h   91% 0 mm 7 W/m2
04:54 9 °C 8 °C 1013 hPa Calm     91% 0 mm 7 W/m2
04:59 9 °C 8 °C 1013.07 hPa WNW 2 km/h   91% 0 mm 11 W/m2
05:04 9 °C 8 °C 1013.07 hPa WNW 1 km/h   91% 0 mm 14 W/m2
05:09 9 °C 8 °C 1013.04 hPa NW 1 km/h   91% 0 mm 26 W/m2
05:14 9 °C 8 °C 1013.04 hPa WNW 1 km/h   91% 0 mm 32 W/m2
05:19 9 °C 8 °C 1013 hPa Calm     91% 0 mm 32 W/m2
05:24 9 °C 8 °C 1013 hPa Calm     91% 0 mm 28 W/m2
05:29 9 °C 7 °C 1013 hPa Calm     91% 0 mm 37 W/m2
05:34 9 °C 7 °C 1012.94 hPa Calm     91% 0 mm 42 W/m2
05:39 9 °C 7 °C 1012.94 hPa Calm     91% 0 mm 42 W/m2
05:44 9 °C 7 °C 1012.94 hPa Calm     90% 0 mm 60 W/m2
05:49 9 °C 7 °C 1012.97 hPa Calm     90% 0 mm 81 W/m2
05:54 9 °C 8 °C 1012.97 hPa Calm     90% 0 mm 91 W/m2
05:59 9 °C 8 °C 1013.04 hPa Calm     90% 0 mm 98 W/m2
06:04 9 °C 8 °C 1013.11 hPa Calm     89% 0 mm 95 W/m2
06:09 9 °C 8 °C 1013.11 hPa Calm     89% 0 mm 74 W/m2
06:14 10 °C 8 °C 1013.11 hPa Calm     89% 0 mm 83 W/m2
06:19 9 °C 8 °C 1013.11 hPa Calm     89% 0 mm 77 W/m2
06:24 9 °C 8 °C 1013.11 hPa Calm     89% 0 mm 72 W/m2
06:29 9 °C 8 °C 1013.07 hPa Calm     88% 0 mm 77 W/m2
06:34 9 °C 8 °C 1013.04 hPa Calm     88% 0 mm 93 W/m2
06:39 10 °C 8 °C 1013.07 hPa Calm     88% 0 mm 107 W/m2
06:44 10 °C 8 °C 1013.07 hPa Calm     88% 0 mm 137 W/m2
06:49 10 °C 8 °C 1013.11 hPa Calm     87% 0 mm 146 W/m2
06:54 10 °C 8 °C 1013.07 hPa Calm     86% 0 mm 151 W/m2
06:59 10 °C 8 °C 1013.11 hPa Calm     86% 0 mm 151 W/m2
07:04 10 °C 8 °C 1013.11 hPa Calm     85% 0 mm 141 W/m2
07:09 10 °C 8 °C 1013.11 hPa Calm     85% 0 mm 183 W/m2
07:14 11 °C 8 °C 1013.11 hPa Calm     85% 0 mm 229 W/m2
07:19 11 °C 8 °C 1013.11 hPa Calm     85% 0 mm 239 W/m2
07:24 11 °C 9 °C 1013.11 hPa Calm     84% 0 mm 260 W/m2
07:29 12 °C 9 °C 1013.11 hPa Calm     84% 0 mm 278 W/m2
07:34 12 °C 9 °C 1013.11 hPa Calm     82% 0 mm 294 W/m2
07:39 12 °C 9 °C 1013.11 hPa Calm     82% 0 mm 309 W/m2
07:44 12 °C 9 °C 1013.11 hPa Calm     83% 0 mm 323 W/m2
07:49 12 °C 9 °C 1013.11 hPa Calm     82% 0 mm 341 W/m2
07:54 12 °C 9 °C 1013.17 hPa Calm     81% 0 mm 346 W/m2
07:59 13 °C 9 °C 1013.28 hPa Calm     79% 0 mm 346 W/m2
08:04 12 °C 9 °C 1013.31 hPa Calm     77% 0 mm 348 W/m2
08:09 13 °C 9 °C 1013.31 hPa Calm     78% 0 mm 357 W/m2
08:14 13 °C 9 °C 1013.31 hPa Calm     78% 0 mm 371 W/m2
08:19 13 °C 9 °C 1013.28 hPa Calm     78% 0 mm 376 W/m2
08:24 13 °C 9 °C 1013.24 hPa SSE 2 km/h 1 km/h 78% 0 mm 392 W/m2
08:29 12 °C 9 °C 1013.24 hPa S 1 km/h   79% 0 mm 387 W/m2
08:34 12 °C 9 °C 1013.21 hPa Calm     79% 0 mm 367 W/m2
08:39 13 °C 9 °C 1013.21 hPa Calm     79% 0 mm 376 W/m2
08:44 13 °C 9 °C 1013.21 hPa Calm     79% 0 mm 378 W/m2
08:49 13 °C 9 °C 1013.24 hPa Calm     78% 0 mm 397 W/m2
08:54 13 °C 9 °C 1013.28 hPa NNW 2 km/h 1 km/h 78% 0 mm 434 W/m2
08:59 13 °C 9 °C 1013.28 hPa NNW 2 km/h 1 km/h 77% 0 mm 459 W/m2
09:04 13 °C 9 °C 1013.24 hPa NNW 2 km/h 1 km/h 77% 0 mm 471 W/m2
09:09 13 °C 9 °C 1013.17 hPa N 2 km/h 1 km/h 77% 0 mm 471 W/m2
09:14 13 °C 9 °C 1013.14 hPa N 2 km/h 1 km/h 77% 0 mm 492 W/m2
09:19 14 °C 10 °C 1013.14 hPa NNW 2 km/h 1 km/h 77% 0 mm 506 W/m2
09:24 14 °C 10 °C 1013.14 hPa NW 6 km/h 5 km/h 77% 0 mm 515 W/m2
09:29 14 °C 10 °C 1013.14 hPa NNW 5 km/h 4 km/h 76% 0 mm 533 W/m2
09:34 14 °C 10 °C 1013.17 hPa NW 6 km/h 7 km/h 76% 0 mm 541 W/m2
09:39 14 °C 10 °C 1013.14 hPa N 7 km/h 6 km/h 76% 0 mm 552 W/m2
09:44 14 °C 10 °C 1013.17 hPa N 11 km/h 9 km/h 76% 0 mm 561 W/m2
09:49 14 °C 10 °C 1013.17 hPa N 7 km/h 6 km/h 76% 0 mm 568 W/m2
09:54 14 °C 10 °C 1013.21 hPa N 9 km/h 9 km/h 75% 0 mm 578 W/m2
09:59 14 °C 10 °C 1013.17 hPa N 7 km/h 6 km/h 75% 0 mm 589 W/m2
10:04 14 °C 10 °C 1013.11 hPa N 10 km/h 7 km/h 74% 0 mm 599 W/m2
10:09 14 °C 10 °C 1013.11 hPa NNW 7 km/h 9 km/h 74% 0 mm 608 W/m2
10:14 14 °C 10 °C 1013.14 hPa N 11 km/h 9 km/h 74% 0 mm 615 W/m2
10:19 14 °C 10 °C 1013.11 hPa N 12 km/h 9 km/h 74% 0 mm 624 W/m2
10:24 14 °C 10 °C 1013.04 hPa N 11 km/h 9 km/h 74% 0 mm 631 W/m2
10:29 14 °C 10 °C 1013.07 hPa N 13 km/h 10 km/h 75% 0 mm 631 W/m2
10:34 14 °C 10 °C 1013.14 hPa N 12 km/h 10 km/h 76% 0 mm 642 W/m2
10:39 14 °C 10 °C 1013.11 hPa N 14 km/h 11 km/h 77% 0 mm 652 W/m2
10:44 14 °C 10 °C 1013.07 hPa N 16 km/h 12 km/h 77% 0 mm 656 W/m2
10:49 14 °C 11 °C 1013.04 hPa N 9 km/h 10 km/h 78% 0 mm 664 W/m2
10:54 15 °C 11 °C 1013 hPa N 8 km/h 6 km/h 76% 0 mm 671 W/m2
10:59 15 °C 10 °C 1013 hPa N 14 km/h 12 km/h 75% 0 mm 682 W/m2
11:04 14 °C 10 °C 1013 hPa N 15 km/h 13 km/h 76% 0 mm 689 W/m2
11:09 14 °C 10 °C 1012.97 hPa N 16 km/h 12 km/h 76% 0 mm 694 W/m2
11:14 14 °C 10 °C 1012.94 hPa N 17 km/h 14 km/h 76% 0 mm 701 W/m2
11:19 14 °C 10 °C 1012.94 hPa N 17 km/h 12 km/h 77% 0 mm 707 W/m2
11:24 14 °C 10 °C 1012.97 hPa N 16 km/h 11 km/h 77% 0 mm 714 W/m2
11:29 14 °C 10 °C 1012.9 hPa N 17 km/h 13 km/h 77% 0 mm 719 W/m2
11:34 14 °C 10 °C 1012.9 hPa N 14 km/h 13 km/h 77% 0 mm 724 W/m2
11:39 15 °C 11 °C 1012.87 hPa N 14 km/h 12 km/h 76% 0 mm 729 W/m2
11:44 15 °C 10 °C 1012.9 hPa N 16 km/h 12 km/h 76% 0 mm 737 W/m2
11:49 15 °C 10 °C 1012.9 hPa N 22 km/h 16 km/h 75% 0 mm 740 W/m2
11:54 14 °C 10 °C 1012.9 hPa N 15 km/h 11 km/h 76% 0 mm 744 W/m2
11:59 15 °C 11 °C 1012.94 hPa N 12 km/h 8 km/h 75% 0 mm 747 W/m2
12:04 15 °C 10 °C 1012.94 hPa N 20 km/h 14 km/h 74% 0 mm 749 W/m2
12:09 15 °C 10 °C 1012.9 hPa N 14 km/h 11 km/h 74% 0 mm 751 W/m2
12:14 15 °C 11 °C 1012.94 hPa N 12 km/h 14 km/h 73% 0 mm 758 W/m2
12:19 15 °C 10 °C 1012.9 hPa N 21 km/h 15 km/h 73% 0 mm 761 W/m2
12:24 14 °C 10 °C 1012.9 hPa N 26 km/h 20 km/h 76% 0 mm 763 W/m2
12:29 14 °C 10 °C 1012.9 hPa N 24 km/h 17 km/h 79% 0 mm 766 W/m2
12:34 14 °C 11 °C 1012.9 hPa N 18 km/h 16 km/h 81% 0 mm 766 W/m2
12:39 14 °C 11 °C 1012.9 hPa N 21 km/h 16 km/h 80% 0 mm 772 W/m2
12:44 14 °C 11 °C 1012.9 hPa N 18 km/h 14 km/h 79% 0 mm 773 W/m2
12:49 15 °C 11 °C 1012.87 hPa N 17 km/h 11 km/h 78% 0 mm 775 W/m2
12:54 15 °C 11 °C 1012.94 hPa N 21 km/h 20 km/h 76% 0 mm 777 W/m2
12:59 14 °C 10 °C 1012.94 hPa N 20 km/h 18 km/h 78% 0 mm 777 W/m2
13:04 14 °C 11 °C 1012.84 hPa N 18 km/h 16 km/h 79% 0 mm 779 W/m2
13:09 14 °C 10 °C 1012.87 hPa N 24 km/h 21 km/h 78% 0 mm 780 W/m2
13:14 14 °C 10 °C 1012.9 hPa N 26 km/h 23 km/h 79% 0 mm 788 W/m2
13:19 14 °C 10 °C 1012.9 hPa N 20 km/h 17 km/h 79% 0 mm 793 W/m2
13:24 14 °C 11 °C 1012.9 hPa N 22 km/h 17 km/h 78% 0 mm 821 W/m2
13:29 14 °C 10 °C 1012.9 hPa N 27 km/h 19 km/h 78% 0 mm 846 W/m2
13:34 14 °C 10 °C 1012.94 hPa N 23 km/h 16 km/h 79% 0 mm 846 W/m2
13:39 14 °C 10 °C 1012.94 hPa N 20 km/h 15 km/h 80% 0 mm 287 W/m2
13:44 13 °C 10 °C 1012.97 hPa N 23 km/h 21 km/h 80% 0 mm 837 W/m2
13:49 14 °C 10 °C 1012.97 hPa N 27 km/h 21 km/h 79% 0 mm 779 W/m2
13:54 14 °C 10 °C 1012.87 hPa N 28 km/h 21 km/h 80% 0 mm 773 W/m2
13:59 14 °C 10 °C 1012.97 hPa N 27 km/h 21 km/h 81% 0 mm 773 W/m2
14:04 14 °C 11 °C 1012.97 hPa N 20 km/h 19 km/h 80% 0 mm 772 W/m2
14:09 14 °C 10 °C 1012.94 hPa N 25 km/h 22 km/h 79% 0 mm 772 W/m2
14:14 14 °C 10 °C 1012.87 hPa N 28 km/h 23 km/h 79% 0 mm 768 W/m2
14:19 14 °C 10 °C 1012.84 hPa N 24 km/h 20 km/h 80% 0 mm 768 W/m2
14:24 14 °C 11 °C 1012.87 hPa N 23 km/h 20 km/h 81% 0 mm 761 W/m2
14:29 14 °C 11 °C 1012.87 hPa N 33 km/h 26 km/h 81% 0 mm 758 W/m2
14:34 14 °C 11 °C 1012.94 hPa N 29 km/h 23 km/h 81% 0 mm 752 W/m2
14:39 14 °C 11 °C 1012.84 hPa N 26 km/h 20 km/h 81% 0 mm 751 W/m2
14:44 14 °C 11 °C 1012.84 hPa N 25 km/h 19 km/h 80% 0 mm 745 W/m2
14:49 14 °C 10 °C 1012.84 hPa N 30 km/h 24 km/h 80% 0 mm 742 W/m2
14:54 14 °C 10 °C 1012.77 hPa N 25 km/h 19 km/h 80% 0 mm 737 W/m2
14:59 14 °C 10 °C 1012.73 hPa N 25 km/h 19 km/h 80% 0 mm 733 W/m2
15:04 14 °C 10 °C 1012.7 hPa N 28 km/h 21 km/h 80% 0 mm 728 W/m2
15:09 14 °C 10 °C 1012.67 hPa N 26 km/h 20 km/h 80% 0 mm 724 W/m2
15:14 14 °C 10 °C 1012.67 hPa N 28 km/h 21 km/h 80% 0 mm 721 W/m2
15:19 14 °C 10 °C 1012.67 hPa N 27 km/h 20 km/h 80% 0 mm 715 W/m2
15:24 14 °C 10 °C 1012.7 hPa N 28 km/h 21 km/h 80% 0 mm 708 W/m2
15:29 14 °C 10 °C 1012.7 hPa N 29 km/h 20 km/h 80% 0 mm 701 W/m2
15:34 14 °C 11 °C 1012.67 hPa N 22 km/h 17 km/h 81% 0 mm 696 W/m2
15:39 14 °C 11 °C 1012.67 hPa N 25 km/h 20 km/h 80% 0 mm 689 W/m2
15:44 14 °C 11 °C 1012.63 hPa N 24 km/h 23 km/h 80% 0 mm 684 W/m2
15:49 14 °C 11 °C 1012.6 hPa N 20 km/h 19 km/h 80% 0 mm 675 W/m2
15:54 14 °C 11 °C 1012.56 hPa N 26 km/h 19 km/h 79% 0 mm 670 W/m2
15:59 14 °C 11 °C 1012.56 hPa N 26 km/h 21 km/h 79% 0 mm 663 W/m2
16:04 14 °C 10 °C 1012.6 hPa N 22 km/h 16 km/h 78% 0 mm 654 W/m2
16:09 14 °C 10 °C 1012.6 hPa N 25 km/h 18 km/h 78% 0 mm 647 W/m2
16:14 14 °C 10 °C 1012.53 hPa N 22 km/h 19 km/h 78% 0 mm 640 W/m2
16:19 14 °C 11 °C 1012.5 hPa N 26 km/h 20 km/h 78% 0 mm 636 W/m2
16:24 14 °C 10 °C 1012.5 hPa N 25 km/h 25 km/h 78% 0 mm 626 W/m2
16:29 14 °C 10 °C 1012.46 hPa N 30 km/h 25 km/h 78% 0 mm 621 W/m2
16:34 14 °C 10 °C 1012.46 hPa N 32 km/h 25 km/h 78% 0 mm 608 W/m2
16:39 14 °C 10 °C 1012.33 hPa N 28 km/h 21 km/h 79% 0 mm 599 W/m2
16:44 14 °C 10 °C 1012.29 hPa N 26 km/h 22 km/h 79% 0 mm 589 W/m2
16:49 14 °C 10 °C 1012.29 hPa N 27 km/h 22 km/h 79% 0 mm 578 W/m2
16:54 14 °C 10 °C 1012.33 hPa N 26 km/h 18 km/h 79% 0 mm 566 W/m2
16:59 14 °C 10 °C 1012.23 hPa N 24 km/h 20 km/h 79% 0 mm 557 W/m2
17:04 14 °C 10 °C 1012.19 hPa N 27 km/h 22 km/h 78% 0 mm 550 W/m2
17:09 14 °C 11 °C 1012.23 hPa N 22 km/h 16 km/h 80% 0 mm 527 W/m2
17:14 14 °C 11 °C 1012.19 hPa N 22 km/h 16 km/h 81% 0 mm 529 W/m2
17:19 14 °C 11 °C 1012.23 hPa N 23 km/h 19 km/h 81% 0 mm 524 W/m2
17:24 14 °C 11 °C 1012.19 hPa N 29 km/h 22 km/h 81% 0 mm 513 W/m2
17:29 14 °C 11 °C 1012.16 hPa N 26 km/h 22 km/h 82% 0 mm 503 W/m2
17:34 13 °C 11 °C 1012.12 hPa N 27 km/h 23 km/h 83% 0 mm 487 W/m2
17:39 13 °C 11 °C 1012.09 hPa N 29 km/h 22 km/h 83% 0 mm 466 W/m2
17:44 13 °C 11 °C 1012.06 hPa N 27 km/h 22 km/h 83% 0 mm 457 W/m2
17:49 13 °C 11 °C 1011.99 hPa N 24 km/h 19 km/h 83% 0 mm 446 W/m2
17:54 13 °C 10 °C 1011.99 hPa N 28 km/h 22 km/h 82% 0 mm 445 W/m2
17:59 13 °C 11 °C 1012.02 hPa N 28 km/h 21 km/h 82% 0 mm 443 W/m2
18:04 13 °C 11 °C 1011.99 hPa N 28 km/h 21 km/h 82% 0 mm 429 W/m2
18:09 13 °C 11 °C 1011.99 hPa N 27 km/h 22 km/h 82% 0 mm 417 W/m2
18:14 13 °C 10 °C 1011.92 hPa N 28 km/h 21 km/h 82% 0 mm 408 W/m2
18:19 13 °C 10 °C 1011.89 hPa N 28 km/h 29 km/h 82% 0 mm 399 W/m2
18:24 13 °C 10 °C 1011.92 hPa N 27 km/h 19 km/h 81% 0 mm 390 W/m2
18:29 13 °C 10 °C 1011.89 hPa N 24 km/h 19 km/h 81% 0 mm 378 W/m2
18:34 13 °C 10 °C 1011.85 hPa N 25 km/h 20 km/h 82% 0 mm 367 W/m2
18:39 13 °C 11 °C 1011.79 hPa N 20 km/h 15 km/h 83% 0 mm 357 W/m2
18:44 13 °C 11 °C 1011.79 hPa N 22 km/h 17 km/h 83% 0 mm 345 W/m2
18:49 13 °C 11 °C 1011.92 hPa N 24 km/h 19 km/h 83% 0 mm 329 W/m2
18:54 13 °C 10 °C 1011.92 hPa N 24 km/h 19 km/h 83% 0 mm 316 W/m2
18:59 13 °C 11 °C 1011.89 hPa N 18 km/h 14 km/h 84% 0 mm 304 W/m2
19:04 13 °C 11 °C 1011.92 hPa N 21 km/h 17 km/h 84% 0 mm 295 W/m2
19:09 13 °C 11 °C 1011.85 hPa N 20 km/h 18 km/h 84% 0 mm 269 W/m2
19:14 13 °C 11 °C 1011.82 hPa N 19 km/h 15 km/h 84% 0 mm 279 W/m2
19:19 13 °C 11 °C 1011.72 hPa N 18 km/h 15 km/h 84% 0 mm 274 W/m2
19:24 13 °C 11 °C 1011.72 hPa N 20 km/h 14 km/h 84% 0 mm 250 W/m2
19:29 13 °C 11 °C 1011.72 hPa N 13 km/h 11 km/h 84% 0 mm 229 W/m2
19:34 13 °C 11 °C 1011.79 hPa N 15 km/h 11 km/h 84% 0 mm 218 W/m2
19:39 13 °C 11 °C 1011.79 hPa N 15 km/h 12 km/h 84% 0 mm 202 W/m2
19:44 13 °C 11 °C 1011.79 hPa N 18 km/h 14 km/h 85% 0 mm 171 W/m2
19:49 13 °C 11 °C 1011.85 hPa N 19 km/h 14 km/h 86% 0 mm 160 W/m2
19:54 13 °C 11 °C 1011.85 hPa N 19 km/h 16 km/h 86% 0 mm 158 W/m2
19:59 13 °C 11 °C 1011.85 hPa N 20 km/h 17 km/h 87% 0 mm 163 W/m2
20:04 13 °C 11 °C 1011.85 hPa N 17 km/h 12 km/h 87% 0 mm 151 W/m2
20:09 13 °C 11 °C 1011.85 hPa N 19 km/h 13 km/h 88% 0 mm 125 W/m2
20:14 13 °C 11 °C 1011.89 hPa N 16 km/h 12 km/h 88% 0 mm 113 W/m2
20:19 13 °C 11 °C 1011.85 hPa N 14 km/h 10 km/h 89% 0 mm 113 W/m2
20:24 13 °C 11 °C 1011.85 hPa N 17 km/h 12 km/h 89% 0 mm 98 W/m2
20:29 12 °C 11 °C 1011.79 hPa N 13 km/h 11 km/h 89% 0 mm 81 W/m2
20:34 12 °C 11 °C 1011.79 hPa N 14 km/h 10 km/h 90% 0 mm 69 W/m2
20:39 12 °C 11 °C 1011.75 hPa N 15 km/h 10 km/h 90% 0 mm 60 W/m2
20:44 12 °C 11 °C 1011.79 hPa N 11 km/h 8 km/h 90% 0 mm 56 W/m2
20:49 12 °C 11 °C 1011.79 hPa N 11 km/h 9 km/h 90% 0 mm 53 W/m2
20:54 12 °C 11 °C 1011.85 hPa N 11 km/h 8 km/h 91% 0 mm 49 W/m2
20:59 12 °C 11 °C 1011.89 hPa N 9 km/h 7 km/h 91% 0 mm 44 W/m2
21:04 12 °C 11 °C 1011.95 hPa N 9 km/h 7 km/h 91% 0 mm 40 W/m2
21:09 12 °C 11 °C 1011.92 hPa N 10 km/h 8 km/h 91% 0 mm 35 W/m2
21:14 12 °C 11 °C 1011.92 hPa NNW 9 km/h 9 km/h 92% 0 mm 30 W/m2
21:19 12 °C 11 °C 1011.85 hPa N 7 km/h 6 km/h 92% 0 mm 28 W/m2
21:24 12 °C 11 °C 1011.82 hPa N 9 km/h 8 km/h 92% 0 mm 26 W/m2
21:29 12 °C 11 °C 1011.75 hPa N 9 km/h 9 km/h 92% 0 mm 23 W/m2
21:34 12 °C 11 °C 1011.79 hPa NNW 6 km/h 5 km/h 93% 0 mm 19 W/m2
21:39 12 °C 11 °C 1011.75 hPa N 6 km/h 4 km/h 93% 0 mm 14 W/m2
21:44 12 °C 11 °C 1011.79 hPa NNW 5 km/h 4 km/h 93% 0 mm 9 W/m2
21:49 12 °C 11 °C 1011.82 hPa NNW 7 km/h 4 km/h 93% 0 mm 7 W/m2
21:54 12 °C 11 °C 1011.75 hPa NW 5 km/h 4 km/h 93% 0 mm 5 W/m2
21:59 12 °C 11 °C 1011.75 hPa N 6 km/h 6 km/h 93% 0 mm 0 W/m2
22:04 12 °C 11 °C 1011.72 hPa N 7 km/h 7 km/h 94% 0 mm 0 W/m2
22:09 12 °C 11 °C 1011.79 hPa NNW 6 km/h 4 km/h 94% 0 mm 0 W/m2
22:14 12 °C 11 °C 1011.75 hPa N 9 km/h 8 km/h 94% 0 mm 0 W/m2
22:19 12 °C 11 °C 1011.72 hPa NNW 4 km/h 4 km/h 94% 0 mm 0 W/m2
22:24 12 °C 11 °C 1011.72 hPa N 4 km/h 4 km/h 94% 0 mm 0 W/m2
22:29 12 °C 11 °C 1011.65 hPa WNW 5 km/h 2 km/h 94% 0 mm 0 W/m2
22:34 12 °C 11 °C 1011.62 hPa N 4 km/h 3 km/h 94% 0 mm 0 W/m2
22:39 12 °C 11 °C 1011.62 hPa NNW 3 km/h 3 km/h 94% 0 mm 0 W/m2
22:44 12 °C 11 °C 1011.58 hPa NNW 3 km/h 2 km/h 94% 0 mm 0 W/m2
22:49 12 °C 11 °C 1011.58 hPa N 4 km/h 3 km/h 94% 0 mm 0 W/m2
22:54 12 °C 11 °C 1011.55 hPa N 4 km/h 3 km/h 95% 0 mm 0 W/m2
22:59 12 °C 11 °C 1011.58 hPa NW 2 km/h   95% 0 mm 0 W/m2
23:04 12 °C 11 °C 1011.68 hPa NNW 2 km/h   95% 0 mm 0 W/m2
23:09 12 °C 11 °C 1011.75 hPa NNW 2 km/h 2 km/h 95% 0 mm 0 W/m2
23:14 12 °C 11 °C 1011.72 hPa N 2 km/h 1 km/h 95% 0 mm 0 W/m2
23:19 12 °C 11 °C 1011.72 hPa NW 2 km/h 2 km/h 95% 0 mm 0 W/m2
23:24 12 °C 11 °C 1011.72 hPa NNW 4 km/h 2 km/h 95% 0 mm 0 W/m2
23:29 12 °C 11 °C 1011.68 hPa WSW 2 km/h   95% 0 mm 0 W/m2
23:34 12 °C 11 °C 1011.65 hPa N 2 km/h 2 km/h 95% 0 mm 0 W/m2
23:39 11 °C 11 °C 1011.58 hPa N 2 km/h 1 km/h 95% 0 mm 0 W/m2
23:44 11 °C 11 °C 1011.58 hPa N 1 km/h   95% 0 mm 0 W/m2
23:49 11 °C 11 °C 1011.48 hPa N 2 km/h 2 km/h 95% 0 mm 0 W/m2
23:54 11 °C 11 °C 1011.45 hPa WNW 3 km/h 2 km/h 95% 0 mm 0 W/m2
23:59 11 °C 11 °C 1011.48 hPa WNW 2 km/h   95% 0 mm 0 W/m2
Compliments of Weather Underground - 2 mb